YCBA

Details ICAO YCBA (CAZ)
Name Cobar
Region Australia
Timezone Australia/Sydney (UTC+10.0)
Plans Departing 1
Arriving 6
Stats Elevation 724 ft / 221 m (AMSL)
Location -31.539197° 145.794447°
Runways 2
Magnetic Variation 9.899° E
Sunrise 2018-05-19 21:01:46 UTC / 2018-05-20 07:01:46 Local
Sunset 2018-05-20 07:27:43 UTC / 2018-05-20 17:27:43 Local
Advertisement - Login to hide

Runways

ID Width Length Bearing (true) Bearing (mag) Surface Threshold Offset Overrun Length
05 98 ft / 30 m 4,983 ft / 1,519 m 54.80° 44.90° Asphalt 0 ft / 0 m 0 ft / 0 m
17 98 ft / 30 m 4,021 ft / 1,226 m 175.22° 165.32° Dirt 0 ft / 0 m 0 ft / 0 m
23 98 ft / 30 m 4,983 ft / 1,519 m 234.80° 224.90° Asphalt 0 ft / 0 m 0 ft / 0 m
35 98 ft / 30 m 4,021 ft / 1,226 m 355.22° 345.32° Dirt 0 ft / 0 m 0 ft / 0 m

Map

Weather


0- 5 10 15 20 25 30 35+ Temperature / ° C

Clouds and Precipitation
Forecast for 2018-05-20 12:00 UTC. Updated an hour ago

Ground ~20,000 ft ~40,000 ft Winds

METAR

YCBA 201000Z AUTO 20008KT 9999 // NCD 13/03 Q1026

TAF

Not found

Frequencies

Unicom 119.60 MHz ACTIVATE LIGHTS ONLY MULT
Unicom 124.90 MHz MELBOURNE CENTRE MULT
Unicom 126.70 MHz COBAR MULT
Warning: Do not use this data for real-world aviation or navigation. No guarantee of current accuracy is given.